Voltar ao catálogo

MTCUBE-2

LostCiênciaMEO
NORAD 53112·PAYLOAD·🇫🇷 France
Este nome de satélite ainda não foi confirmado por fontes oficiais.

Lançado Jul 13, 2022 de Guiana Space Centre

Loading…

Próximas Passagens (próximas 24 horas)

TLE

ObsoletoSource: Space-Track

Época: Oct 20, 2022, 01:13 UTC

1 53112U 22080H   22293.05099946 -.00000003  00000-0  00000+0 0  9997
2 53112  70.1502  43.1307 0006644 224.4624 135.5503  6.42556632  6211

Acompanhe MTCUBE-2 em tempo real com AllMySat

Download on the App Store